| time (UTC) | temp C | wind direction | speed KPH | gust KPH | rain 1hr cm | rain 24hr cm | rain mn cm | humidity % | barometer mb |
| 20260504150946 | 18 | 45 | 0.0 | 0.0 | 0.00 | 0.00 | 0.00 | 59 | 1016.9 |
| 20260504150443 | 18 | 45 | 0.0 | 0.0 | 0.00 | 0.00 | 0.00 | 59 | 1016.9 |
| 20260504140910 | 14 | 53 | 1.6 | 1.6 | 0.00 | 0.00 | 0.00 | 70 | 1017.5 |
| 20260504140406 | 13 | 52 | 1.6 | 1.6 | 0.00 | 0.00 | 0.00 | 73 | 1017.2 |
| 20260504130331 | 9 | 40 | 1.6 | 1.6 | 0.00 | 0.00 | 0.00 | 84 | 1017.2 |
| 20260504120254 | 5 | 40 | 0.0 | 0.0 | 0.00 | 0.00 | 0.00 | 96 | 1017.0 |
| 20260504110218 | 5 | 40 | 0.0 | 0.0 | 0.00 | 0.00 | 0.00 | 95 | 1017.0 |
| 20260504100142 | 5 | 40 | 0.0 | 0.0 | 0.00 | 0.00 | 0.00 | 95 | 1016.5 |
| 20260504090104 | 5 | 40 | 0.0 | 0.0 | 0.00 | 0.00 | 0.00 | 94 | 1016.6 |
| 20260504081535 | 6 | 40 | 0.0 | 0.0 | 0.00 | 0.00 | 0.00 | 94 | 1016.6 |
| 20260504081030 | 6 | 40 | 0.0 | 0.0 | 0.00 | 0.00 | 0.00 | 94 | 1016.6 |
| 20260504080527 | 6 | 40 | 0.0 | 0.0 | 0.00 | 0.00 | 0.00 | 94 | 1016.7 |
| 20260504050340 | 8 | 40 | 0.0 | 0.0 | 0.00 | 0.00 | 0.00 | 89 | 1017.5 |
| 20260504045837 | 8 | 40 | 0.0 | 0.0 | 0.00 | 0.00 | 0.00 | 89 | 1017.7 |
| 20260504045332 | 8 | 40 | 0.0 | 0.0 | 0.00 | 0.00 | 0.00 | 89 | 1017.6 |
| 20260504044829 | 8 | 40 | 0.0 | 0.0 | 0.00 | 0.00 | 0.00 | 88 | 1017.6 |
| 20260504044327 | 8 | 40 | 0.0 | 0.0 | 0.00 | 0.00 | 0.00 | 87 | 1017.5 |
| 20260504043824 | 8 | 40 | 0.0 | 0.0 | 0.00 | 0.00 | 0.00 | 87 | 1017.4 |
| 20260504043320 | 8 | 40 | 0.0 | 0.0 | 0.00 | 0.00 | 0.00 | 87 | 1017.7 |
| 20260504042818 | 8 | 40 | 0.0 | 0.0 | 0.00 | 0.00 | 0.00 | 88 | 1017.8 |
| 20260504042314 | 8 | 40 | 0.0 | 0.0 | 0.00 | 0.00 | 0.00 | 88 | 1018.0 |
| 20260504041811 | 8 | 40 | 0.0 | 0.0 | 0.00 | 0.00 | 0.00 | 89 | 1018.0 |
| 20260504041307 | 8 | 40 | 0.0 | 0.0 | 0.00 | 0.00 | 0.00 | 88 | 1018.1 |
| 20260504040803 | 9 | 40 | 0.0 | 0.0 | 0.00 | 0.00 | 0.00 | 87 | 1018.0 |
| 20260504040301 | 9 | 40 | 0.0 | 0.0 | 0.00 | 0.00 | 0.00 | 87 | 1017.9 |
| 20260504035756 | 9 | 40 | 0.0 | 0.0 | 0.00 | 0.00 | 0.00 | 87 | 1017.9 |
| 20260504035253 | 9 | 40 | 0.0 | 0.0 | 0.00 | 0.00 | 0.00 | 86 | 1017.9 |
| 20260504034751 | 9 | 40 | 0.0 | 0.0 | 0.00 | 0.00 | 0.00 | 85 | 1018.1 |
| 20260504034248 | 9 | 40 | 0.0 | 0.0 | 0.00 | 0.00 | 0.00 | 84 | 1018.0 |
| 20260504033746 | 9 | 40 | 0.0 | 0.0 | 0.00 | 0.00 | 0.00 | 84 | 1018.0 |
| 20260504033243 | 10 | 40 | 0.0 | 0.0 | 0.00 | 0.00 | 0.00 | 83 | 1018.1 |
| 20260504032740 | 10 | 40 | 0.0 | 0.0 | 0.00 | 0.00 | 0.00 | 82 | 1017.9 |
| 20260504032237 | 10 | 40 | 0.0 | 0.0 | 0.00 | 0.00 | 0.00 | 82 | 1017.9 |
| 20260504031733 | 10 | 40 | 0.0 | 0.0 | 0.00 | 0.00 | 0.00 | 82 | 1017.7 |
| 20260504031231 | 10 | 40 | 0.0 | 0.0 | 0.00 | 0.00 | 0.00 | 82 | 1017.8 |
| 20260504030727 | 10 | 40 | 0.0 | 0.0 | 0.00 | 0.00 | 0.00 | 81 | 1018.0 |
| 20260504030224 | 10 | 40 | 0.0 | 0.0 | 0.00 | 0.00 | 0.00 | 81 | 1017.9 |
| 20260504025721 | 10 | 40 | 0.0 | 0.0 | 0.00 | 0.00 | 0.00 | 80 | 1017.9 |
| 20260504025217 | 10 | 40 | 0.0 | 0.0 | 0.00 | 0.00 | 0.00 | 79 | 1017.8 |
| 20260504024715 | 10 | 40 | 0.0 | 0.0 | 0.00 | 0.00 | 0.00 | 79 | 1018.0 |
| 20260504024211 | 10 | 40 | 0.0 | 0.0 | 0.00 | 0.00 | 0.00 | 77 | 1017.8 |
| 20260504023708 | 11 | 40 | 1.6 | 0.0 | 0.00 | 0.00 | 0.00 | 75 | 1017.7 |
| 20260504023204 | 11 | 40 | 0.0 | 0.0 | 0.00 | 0.00 | 0.00 | 73 | 1017.9 |
| 20260504022700 | 11 | 39 | 0.0 | 0.0 | 0.00 | 0.00 | 0.00 | 73 | 1017.6 |
| 20260504022156 | 11 | 40 | 0.0 | 0.0 | 0.00 | 0.00 | 0.00 | 74 | 1017.7 |
| 20260504021654 | 11 | 40 | 0.0 | 0.0 | 0.00 | 0.00 | 0.00 | 73 | 1017.3 |
| 20260504021150 | 11 | 40 | 0.0 | 0.0 | 0.00 | 0.00 | 0.00 | 72 | 1017.3 |
| 20260504020648 | 11 | 39 | 0.0 | 0.0 | 0.00 | 0.00 | 0.00 | 70 | 1017.2 |
| 20260504020143 | 12 | 39 | 0.0 | 0.0 | 0.00 | 0.00 | 0.00 | 68 | 1017.3 |
| 20260504015641 | 12 | 39 | 0.0 | 0.0 | 0.00 | 0.00 | 0.00 | 67 | 1017.3 |
| 20260504015137 | 12 | 39 | 0.0 | 0.0 | 0.00 | 0.00 | 0.00 | 65 | 1017.5 |
| 20260504014632 | 12 | 39 | 0.0 | 0.0 | 0.00 | 0.00 | 0.00 | 65 | 1017.4 |
| 20260504014130 | 12 | 39 | 0.0 | 0.0 | 0.00 | 0.00 | 0.00 | 62 | 1017.0 |
| 20260504013628 | 13 | 39 | 0.0 | 0.0 | 0.00 | 0.00 | 0.00 | 61 | 1017.0 |
| 20260504013124 | 13 | 39 | 0.0 | 0.0 | 0.00 | 0.00 | 0.00 | 62 | 1017.1 |
| 20260504012621 | 13 | 39 | 0.0 | 0.0 | 0.00 | 0.00 | 0.00 | 61 | 1017.1 |
| 20260504012120 | 13 | 39 | 0.0 | 0.0 | 0.00 | 0.00 | 0.00 | 63 | 1017.2 |
| 20260504011616 | 13 | 39 | 0.0 | 0.0 | 0.00 | 0.00 | 0.00 | 62 | 1016.8 |
| 20260504011112 | 13 | 39 | 1.6 | 1.6 | 0.00 | 0.00 | 0.00 | 61 | 1016.8 |
| 20260504010608 | 13 | 40 | 1.6 | 1.6 | 0.00 | 0.00 | 0.00 | 61 | 1016.8 |
| 20260504010104 | 13 | 39 | 1.6 | 1.6 | 0.00 | 0.00 | 0.00 | 61 | 1016.9 |
| 20260504005601 | 14 | 40 | 0.0 | 0.0 | 0.00 | 0.00 | 0.00 | 60 | 1016.8 |
| 20260504005058 | 14 | 39 | 0.0 | 0.0 | 0.00 | 0.00 | 0.00 | 58 | 1016.6 |
| 20260504004556 | 15 | 40 | 0.0 | 0.0 | 0.00 | 0.00 | 0.00 | 59 | 1016.5 |
| 20260504004053 | 15 | 40 | 0.0 | 0.0 | 0.00 | 0.00 | 0.00 | 58 | 1016.5 |
| 20260504003549 | 15 | 39 | 0.0 | 0.0 | 0.00 | 0.00 | 0.00 | 57 | 1016.5 |
| 20260504003046 | 15 | 39 | 1.6 | 1.6 | 0.00 | 0.00 | 0.00 | 56 | 1016.6 |
| 20260504002543 | 15 | 40 | 0.0 | 0.0 | 0.00 | 0.00 | 0.00 | 57 | 1016.5 |
| 20260504002040 | 15 | 40 | 0.0 | 0.0 | 0.00 | 0.00 | 0.00 | 55 | 1016.5 |
| 20260504001538 | 16 | 40 | 0.0 | 0.0 | 0.00 | 0.00 | 0.00 | 51 | 1016.5 |
| 20260504001034 | 16 | 40 | 0.0 | 0.0 | 0.00 | 0.00 | 0.00 | 49 | 1016.3 |
| 20260504000531 | 16 | 39 | 0.0 | 0.0 | 0.00 | 0.00 | 0.00 | 49 | 1016.3 |
| 20260504000029 | 16 | 39 | 0.0 | 0.0 | 0.00 | 0.00 | 0.00 | 48 | 1016.5 |
| 20260503235527 | 17 | 39 | 0.0 | 0.0 | 0.00 | 0.00 | 0.00 | 48 | 1016.6 |
| 20260503235023 | 17 | 39 | 0.0 | 0.0 | 0.00 | 0.00 | 0.00 | 47 | 1016.6 |
| 20260503234521 | 17 | 39 | 0.0 | 0.0 | 0.00 | 0.00 | 0.00 | 45 | 1016.6 |
| 20260503234019 | 17 | 40 | 1.6 | 1.6 | 0.00 | 0.00 | 0.00 | 45 | 1016.3 |
| 20260503233515 | 17 | 40 | 0.0 | 0.0 | 0.00 | 0.00 | 0.00 | 44 | 1016.3 |
| 20260503233011 | 17 | 39 | 0.0 | 0.0 | 0.00 | 0.00 | 0.00 | 46 | 1016.2 |
| 20260503232508 | 18 | 38 | 0.0 | 0.0 | 0.00 | 0.00 | 0.00 | 44 | 1016.6 |
| 20260503232006 | 18 | 46 | 1.6 | 1.6 | 0.00 | 0.00 | 0.00 | 43 | 1016.3 |
| 20260503231504 | 18 | 47 | 0.0 | 0.0 | 0.00 | 0.00 | 0.00 | 43 | 1016.5 |
| 20260503231000 | 18 | 47 | 0.0 | 0.0 | 0.00 | 0.00 | 0.00 | 41 | 1016.3 |
| 20260503230457 | 18 | 46 | 0.0 | 0.0 | 0.00 | 0.00 | 0.00 | 42 | 1016.5 |
| 20260503225954 | 18 | 46 | 0.0 | 0.0 | 0.00 | 0.00 | 0.00 | 40 | 1016.6 |
| 20260503225451 | 18 | 46 | 0.0 | 0.0 | 0.00 | 0.00 | 0.00 | 43 | 1016.8 |
| 20260503224946 | 18 | 46 | 0.0 | 0.0 | 0.00 | 0.00 | 0.00 | 39 | 1016.6 |
| 20260503224443 | 18 | 46 | 0.0 | 0.0 | 0.00 | 0.00 | 0.00 | 38 | 1016.3 |
| 20260503223941 | 18 | 46 | 0.0 | 0.0 | 0.00 | 0.00 | 0.00 | 40 | 1016.5 |
| 20260503223439 | 18 | 46 | 0.0 | 0.0 | 0.00 | 0.00 | 0.00 | 39 | 1016.5 |
| 20260503222934 | 18 | 47 | 1.6 | 1.6 | 0.00 | 0.00 | 0.00 | 37 | 1016.7 |
| 20260503222433 | 18 | 36 | 1.6 | 1.6 | 0.00 | 0.00 | 0.00 | 39 | 1016.6 |
| 20260503221931 | 19 | 36 | 0.0 | 0.0 | 0.00 | 0.00 | 0.00 | 39 | 1017.0 |
| 20260503221429 | 19 | 71 | 0.0 | 0.0 | 0.00 | 0.00 | 0.00 | 39 | 1016.6 |
| 20260503220925 | 19 | 68 | 0.0 | 1.6 | 0.00 | 0.00 | 0.00 | 41 | 1016.5 |
| 20260503220421 | 19 | 68 | 1.6 | 1.6 | 0.00 | 0.00 | 0.00 | 41 | 1016.6 |
| 20260503215919 | 19 | 68 | 1.6 | 1.6 | 0.00 | 0.00 | 0.00 | 39 | 1016.8 |
| 20260503215416 | 19 | 69 | 0.0 | 0.0 | 0.00 | 0.00 | 0.00 | 38 | 1016.8 |
| 20260503214913 | 19 | 63 | 1.6 | 1.6 | 0.00 | 0.00 | 0.00 | 36 | 1017.0 |
| 20260503214411 | 19 | 55 | 1.6 | 0.0 | 0.00 | 0.00 | 0.00 | 38 | 1016.8 |
| 20260503213908 | 19 | 58 | 0.0 | 0.0 | 0.00 | 0.00 | 0.00 | 38 | 1016.9 |
| 20260503213406 | 19 | 59 | 1.6 | 3.2 | 0.00 | 0.00 | 0.00 | 39 | 1016.9 |
| 20260503212902 | 19 | 37 | 1.6 | 1.6 | 0.00 | 0.00 | 0.00 | 37 | 1017.0 |
| 20260503212400 | 19 | 71 | 1.6 | 1.6 | 0.00 | 0.00 | 0.00 | 39 | 1017.2 |
| 20260503211857 | 19 | 49 | 0.0 | 0.0 | 0.00 | 0.00 | 0.00 | 37 | 1017.0 |
| 20260503211354 | 20 | 34 | 1.6 | 3.2 | 0.00 | 0.00 | 0.00 | 39 | 1017.1 |
| 20260503210848 | 20 | 41 | 1.6 | 1.6 | 0.00 | 0.00 | 0.00 | 38 | 1017.2 |
| 20260503210346 | 20 | 44 | 1.6 | 1.6 | 0.00 | 0.00 | 0.00 | 38 | 1017.2 |
| 20260503205841 | 19 | 48 | 1.6 | 3.2 | 0.00 | 0.00 | 0.00 | 40 | 1017.1 |
| 20260503205338 | 19 | 41 | 0.0 | 0.0 | 0.00 | 0.00 | 0.00 | 37 | 1016.9 |
| 20260503204834 | 20 | 26 | 3.2 | 3.2 | 0.00 | 0.00 | 0.00 | 37 | 1017.2 |
| 20260503204332 | 20 | 44 | 0.0 | 1.6 | 0.00 | 0.00 | 0.00 | 35 | 1017.3 |
| 20260503203829 | 20 | 52 | 1.6 | 3.2 | 0.00 | 0.00 | 0.00 | 35 | 1017.3 |
| 20260503203326 | 20 | 30 | 1.6 | 1.6 | 0.00 | 0.00 | 0.00 | 36 | 1017.5 |
| 20260503202823 | 20 | 16 | 1.6 | 1.6 | 0.00 | 0.00 | 0.00 | 34 | 1017.6 |
| 20260503202321 | 20 | 38 | 3.2 | 4.8 | 0.00 | 0.00 | 0.00 | 34 | 1017.5 |
| 20260503201819 | 20 | 58 | 1.6 | 1.6 | 0.00 | 0.00 | 0.00 | 33 | 1017.6 |
| 20260503201316 | 20 | 65 | 3.2 | 1.6 | 0.00 | 0.00 | 0.00 | 34 | 1017.9 |
| 20260503200814 | 20 | 30 | 1.6 | 1.6 | 0.00 | 0.00 | 0.00 | 36 | 1017.9 |
| 20260503200309 | 20 | 2 | 4.8 | 4.8 | 0.00 | 0.00 | 0.00 | 35 | 1018.0 |
| 20260503195807 | 20 | 43 | 1.6 | 1.6 | 0.00 | 0.00 | 0.00 | 34 | 1018.1 |
| 20260503195304 | 21 | 70 | 1.6 | 3.2 | 0.00 | 0.00 | 0.00 | 33 | 1018.1 |
| 20260503194800 | 21 | 35 | 1.6 | 3.2 | 0.00 | 0.00 | 0.00 | 38 | 1018.2 |
| 20260503194256 | 21 | 71 | 3.2 | 3.2 | 0.00 | 0.00 | 0.00 | 37 | 1018.3 |
| 20260503193753 | 20 | 54 | 1.6 | 1.6 | 0.00 | 0.00 | 0.00 | 38 | 1018.2 |
| 20260503193249 | 20 | 11 | 3.2 | 3.2 | 0.00 | 0.00 | 0.00 | 36 | 1018.4 |
| 20260503192745 | 20 | 37 | 1.6 | 1.6 | 0.00 | 0.00 | 0.00 | 37 | 1018.5 |
| 20260503192240 | 20 | 73 | 0.0 | 0.0 | 0.00 | 0.00 | 0.00 | 37 | 1018.4 |
| 20260503191737 | 20 | 81 | 1.6 | 3.2 | 0.00 | 0.00 | 0.00 | 36 | 1018.6 |
| 20260503191234 | 20 | 68 | 0.0 | 1.6 | 0.00 | 0.00 | 0.00 | 39 | 1018.6 |
| 20260503190731 | 20 | 103 | 0.0 | 0.0 | 0.00 | 0.00 | 0.00 | 38 | 1018.7 |
| 20260503190227 | 20 | 56 | 1.6 | 1.6 | 0.00 | 0.00 | 0.00 | 37 | 1018.7 |
| 20260503185725 | 20 | 46 | 1.6 | 1.6 | 0.00 | 0.00 | 0.00 | 34 | 1019.1 |
| 20260503185220 | 20 | 40 | 1.6 | 1.6 | 0.00 | 0.00 | 0.00 | 35 | 1019.1 |
| 20260503184715 | 20 | 58 | 3.2 | 3.2 | 0.00 | 0.00 | 0.00 | 36 | 1019.1 |
| 20260503184212 | 20 | 27 | 1.6 | 1.6 | 0.00 | 0.00 | 0.00 | 36 | 1019.2 |
| 20260503183708 | 19 | 29 | 1.6 | 1.6 | 0.00 | 0.00 | 0.00 | 34 | 1019.2 |
| 20260503183206 | 19 | 82 | 1.6 | 1.6 | 0.00 | 0.00 | 0.00 | 36 | 1019.1 |
| 20260503182704 | 19 | 45 | 1.6 | 1.6 | 0.00 | 0.00 | 0.00 | 38 | 1019.1 |
| 20260503182202 | 19 | 35 | 1.6 | 1.6 | 0.00 | 0.00 | 0.00 | 37 | 1019.2 |
| 20260503181658 | 19 | 53 | 1.6 | 1.6 | 0.00 | 0.00 | 0.00 | 37 | 1019.2 |
| 20260503181155 | 19 | 75 | 1.6 | 1.6 | 0.00 | 0.00 | 0.00 | 37 | 1019.5 |
| 20260503180651 | 19 | 86 | 1.6 | 1.6 | 0.00 | 0.00 | 0.00 | 39 | 1019.4 |
| 20260503180150 | 18 | 60 | 1.6 | 1.6 | 0.00 | 0.00 | 0.00 | 42 | 1019.5 |
| 20260503175647 | 18 | 47 | 3.2 | 3.2 | 0.00 | 0.00 | 0.00 | 43 | 1019.6 |
| 20260503175144 | 18 | 57 | 3.2 | 3.2 | 0.00 | 0.00 | 0.00 | 40 | 1019.5 |
| 20260503174640 | 18 | 48 | 1.6 | 1.6 | 0.00 | 0.00 | 0.00 | 41 | 1019.5 |
| 20260503174137 | 18 | 43 | 1.6 | 1.6 | 0.00 | 0.00 | 0.00 | 39 | 1019.6 |
| 20260503173632 | 19 | 57 | 1.6 | 1.6 | 0.00 | 0.00 | 0.00 | 40 | 1019.7 |
| 20260503173129 | 18 | 44 | 1.6 | 1.6 | 0.00 | 0.00 | 0.00 | 45 | 1019.8 |
| 20260503172626 | 18 | 51 | 0.0 | 1.6 | 0.00 | 0.00 | 0.00 | 40 | 1019.6 |
| 20260503172124 | 18 | 63 | 1.6 | 1.6 | 0.00 | 0.00 | 0.00 | 42 | 1019.6 |
| 20260503171620 | 17 | 81 | 0.0 | 0.0 | 0.00 | 0.00 | 0.00 | 45 | 1019.9 |
| 20260503171117 | 17 | 108 | 3.2 | 3.2 | 0.00 | 0.00 | 0.00 | 51 | 1019.7 |
| 20260503170614 | 18 | 97 | 3.2 | 3.2 | 0.00 | 0.00 | 0.00 | 48 | 1019.9 |
| 20260503170111 | 17 | 82 | 1.6 | 1.6 | 0.00 | 0.00 | 0.00 | 46 | 1020.0 |